星链-5534 (STARLINK-5534 )

导读

STARLINK-5534是美国太空探索技术公司星链计划中的一颗卫星,于2023年5月10日发射升空,属于星链星座组网的组成部分。星链计划旨在构建全球卫星互联网星座,该卫星承担着为全球范围内用户提供低延迟、高速率宽带互联网接入服务的任务,进一步推进了星链星座的部署进程。

基本信息
目录编号:
56477
目录名称:
STARLINK-5534
国际标识:
2023-064AF
轨道中心:
EARTH
卫星名称:
星链-5534
卫星全名:
星链-5534 (STARLINK-5534 )
卫星状态:
在轨 (已飞行1221 天)
发射日期:
2023-05-10 UTC
国别 :
美国 (US)
星等 :
--
该卫星已列入 空间交会检测服务 Space Conjunction Data Service (SCDS) ,当前飞行风险评估等级: 无高风险
轨道信息
数据来源 国际轨道数据
星历时间: 2026-09-12T15:12:01+0800
6小时前
查看轨道信息
半长轴: 6950.168km
偏心率: 0.0002881
轨道倾角: 70.002°
近地点辐角 266.108°
升交点赤经 13.870°
平近点角 93.975°
近地点: 570.028km
远地点: 574.034km
周期: 96.106分钟
每日圈数: 14.983382
详细信息
固有亮度:
5
最大亮度:
2.5
卫星平台:
Starlink v1.5
覆盖范围:
全球
运营商:
太空探索技术公司
运营商所在国:
美国
制造商(研发单位):
太空探索技术公司
制造商所在国:
美国
使用方式:
暂无
卫星简介
星链(Starlink)计划是由太空探索技术公司(SpaceX)提出的一个巨型低轨卫星互联网星座项目,计划在2019年至2024年间在太空搭建由约1.2万颗卫星组成的“星链”网络,其中1584颗将部署在地球上空550千米处的近地轨道,并从2020年开始工作。该卫星仍在工作。
2D轨道图
3D轨道图
轨道高度分析图
轨道倾角分析图
轨道综合分析图
查看轨道综合分析图
与全量物体交会距离演化趋势
与全量物体交会风险概率演化趋势